Madrid, Spain

2:41 PM CET on December 16, 2017 (GMT +0100)
Madrid-Barajas Airport

Weather History for LEMD - December, 2013

Change the Weather History Date:

Sunday, December 1, 2013

  Actual Average Record
Temperature  
Mean Temperature 43 °F -  
Max Temperature 55 °F 49 °F 63 °F (2015)
Min Temperature 31 °F 33 °F 24 °F (2015)
Degree Days  
Heating Degree Days 22    
Moisture  
Dew Point 23 °F    
Average Humidity 46    
Maximum Humidity 70    
Minimum Humidity 18    
Precipitation  
Precipitation 0.00 in 0.06 in - ()
Sea Level Pressure  
Sea Level Pressure 30.10 in    
Wind  
Wind Speed 5 mph ()    
Max Wind Speed 14 mph    
Max Gust Speed -    
Visibility 14.0 miles    
Events      
Averages and records for this station are not official NWS values.
T = Trace of Precipitation, MM = Missing Value Source: Averaged Metar Reports

Daily Weather History Graph

Daily Weather History Graph

Search for Another Location

Airport or City:

Trip Planner

Search our weather history database for the weather conditions in past years. The results will help you decide how hot, cold, wet, or windy it might be!

Date:

Astronomy

Dec. 01, 2013 Rise Set
Actual Time 8:18 AM CET 5:48 PM CET
Civil Twilight 7:47 AM CET 6:18 PM CET
Nautical Twilight 7:14 AM CET 6:52 PM CET
Astronomical Twilight 6:41 AM CET 7:25 PM CET
Moon 6:19 AM CET (12/1) 4:46 PM CET (12/1)
Length of Visible Light 10h 30m
Length of Day
9h 30m
Waning Crescent, 3% of the Moon is Illuminated
Dec 1
Waning Crescent
Dec 3
New
Dec 9
First Quarter
Dec 17
Full
Dec 25
Last Quarter

Hourly Weather History & Observations

Time (CET) Temp. Windchill Dew Point Humidity Pressure Visibility Wind Dir Wind Speed Gust Speed Precip Events Conditions
12:00 AM 38 °F - 28 °F 58% 30.14 in 19 mi NNW 3.5 mph - -   Scattered Clouds
12:00 AM 37.4 °F 33.8 °F 28.4 °F 70% 30.06 in 6.2 mi NNW 4.6 mph - N/A   Partly Cloudy
12:30 AM 35.6 °F 30.7 °F 26.6 °F 70% 30.06 in 6.2 mi NW 5.8 mph - N/A   Partly Cloudy
1:00 AM 35 °F - 26 °F 60% 30.14 in 19 mi North 3.5 mph - -   Scattered Clouds
1:00 AM 35.6 °F 31.7 °F 24.8 °F 65% 30.06 in 6.2 mi NNW 4.6 mph - N/A   Partly Cloudy
1:30 AM 35.6 °F 30.7 °F 24.8 °F 65% 30.06 in 6.2 mi ESE 5.8 mph - N/A   Partly Cloudy
2:00 AM 34 °F - 24 °F 57% 30.15 in 19 mi NE 4.6 mph - -   Scattered Clouds
2:00 AM 35.6 °F 30.7 °F 24.8 °F 65% 30.06 in 6.2 mi NNE 5.8 mph - N/A   Partly Cloudy
2:30 AM 35.6 °F 32.8 °F 24.8 °F 65% 30.06 in 6.2 mi North 3.5 mph - N/A   Partly Cloudy
3:00 AM 34 °F - 25 °F 58% 30.15 in 19 mi NNE 4.6 mph - -   Scattered Clouds
3:00 AM 33.8 °F 30.8 °F 23.0 °F 65% 30.06 in 6.2 mi NNE 3.5 mph - N/A   Partly Cloudy
3:30 AM 35.6 °F 29.9 °F 24.8 °F 65% 30.06 in 6.2 mi NE 6.9 mph - N/A   Partly Cloudy
4:00 AM 35.6 °F 29.9 °F 23.0 °F 60% 30.06 in 6.2 mi NE 6.9 mph - N/A   Partly Cloudy
4:30 AM 33.8 °F 30.8 °F 23.0 °F 65% 30.06 in 6.2 mi NW 3.5 mph - N/A   Partly Cloudy
5:00 AM 32 °F - 23 °F 59% 30.16 in 19 mi South 2.3 mph - -   Scattered Clouds
5:00 AM 32.0 °F - 23.0 °F 69% 30.06 in 6.2 mi North 1.2 mph - N/A   Partly Cloudy
5:30 AM 33.8 °F 29.6 °F 21.2 °F 60% 30.06 in 6.2 mi ENE 4.6 mph - N/A   Partly Cloudy
6:00 AM 33 °F - 22 °F 51% 30.17 in 19 mi SSE 4.6 mph - -   Scattered Clouds
6:00 AM 33.8 °F 30.8 °F 21.2 °F 60% 30.06 in 6.2 mi ENE 3.5 mph - N/A   Partly Cloudy
6:30 AM 33.8 °F 29.6 °F 21.2 °F 60% 30.09 in - ENE 4.6 mph - N/A   Clear
7:00 AM 32 °F - 21 °F 51% 30.19 in 19 mi WSW 2.3 mph - -   Scattered Clouds
7:00 AM 32.0 °F - 21.2 °F 64% 30.09 in - NE 1.2 mph - N/A   Clear
7:30 AM 33.8 °F 30.8 °F 19.4 °F 56% 30.09 in - NW 3.5 mph - N/A   Clear
8:00 AM 34 °F - 21 °F 45% 30.18 in 19 mi NNE 9.2 mph - -  
8:00 AM 33.8 °F 28.6 °F 19.4 °F 56% 30.09 in - North 5.8 mph - N/A   Clear
8:30 AM 33.8 °F 29.6 °F 19.4 °F 56% 30.09 in - NNW 4.6 mph - N/A   Clear
9:00 AM 33 °F - 21 °F 49% 30.21 in 19 mi ENE 5.8 mph - -  
9:00 AM 33.8 °F 29.6 °F 21.2 °F 60% 30.12 in - NE 4.6 mph - N/A   Clear
9:30 AM 37.4 °F 33.8 °F 23.0 °F 56% 30.12 in - East 4.6 mph - N/A   Clear
10:00 AM 39.2 °F - 23.0 °F 52% 30.15 in - SW 1.2 mph - N/A   Clear
10:30 AM 41.0 °F 39.0 °F 21.2 °F 45% 30.15 in - South 3.5 mph - N/A   Clear
11:00 AM 44 °F - 24 °F 31% 30.20 in 19 mi East 2.3 mph - -  
11:00 AM 42.8 °F 41.1 °F 23.0 °F 46% 30.15 in - ENE 3.5 mph - N/A   Clear
11:30 AM 44.6 °F - 23.0 °F 43% 30.15 in - Variable 2.3 mph - N/A   Clear
12:00 PM 49 °F - 24 °F 24% 30.16 in 19 mi NE 4.6 mph - -  
12:00 PM 48.2 °F - 23.0 °F 37% 30.12 in - ENE 3.5 mph - N/A   Clear
12:30 PM 51.8 °F - 23.0 °F 33% 30.12 in - NE 6.9 mph - N/A   Clear
1:00 PM 54 °F - 25 °F 20% 30.10 in 19 mi NNE 5.8 mph - -  
1:00 PM 53.6 °F - 24.8 °F 33% 30.09 in - NNE 5.8 mph - N/A   Clear
1:30 PM 53.6 °F - 24.8 °F 33% 30.09 in - NE 9.2 mph - N/A   Clear
2:00 PM 56 °F - 26 °F 19% 30.07 in 19 mi NE 8.1 mph - -  
2:00 PM 55.4 °F - 24.8 °F 31% 30.06 in - NE 10.4 mph - N/A   Clear
2:30 PM 55.4 °F - 24.8 °F 31% 30.06 in - NE 11.5 mph - N/A   Clear
3:00 PM 55 °F - 23 °F 18% 30.05 in 19 mi NNE 13.8 mph - -  
3:00 PM 55.4 °F - 23.0 °F 29% 30.06 in - NNE 10.4 mph - N/A   Clear
3:30 PM 53.6 °F - 23.0 °F 30% 30.04 in - NNE 12.7 mph - N/A   Clear
4:00 PM 53.6 °F - 23.0 °F 30% 30.04 in - NE 11.5 mph - N/A   Clear
4:30 PM 53.6 °F - 23.0 °F 30% 30.06 in - NE 8.1 mph - N/A   Clear
5:00 PM 52 °F - 21 °F 18% 30.07 in 19 mi NE 10.4 mph - -   Scattered Clouds
5:00 PM 51.8 °F - 21.2 °F 30% 30.06 in - NE 9.2 mph - N/A   Clear
5:30 PM 50.0 °F - 21.2 °F 32% 30.06 in - NE 6.9 mph - N/A   Clear
6:00 PM 48 °F - 20 °F 21% 30.10 in 19 mi NE 6.9 mph - -   Scattered Clouds
6:00 PM 48.2 °F - 21.2 °F 34% 30.06 in - NE 5.8 mph - N/A   Clear
6:30 PM 46.4 °F 42.9 °F 21.2 °F 37% 30.09 in - North 6.9 mph - N/A   Clear
7:00 PM 44 °F - 24 °F 32% 30.14 in 19 mi North 8.1 mph - -   Scattered Clouds
7:00 PM 44.6 °F 40.2 °F 23.0 °F 43% 30.09 in - North 8.1 mph - N/A   Clear
7:30 PM 42.8 °F 37.5 °F 23.0 °F 46% 30.09 in - North 9.2 mph - N/A   Clear
8:00 PM 41 °F - 23 °F 36% 30.16 in 19 mi NNW 8.1 mph - -   Scattered Clouds
8:00 PM 41.0 °F 36.4 °F 23.0 °F 49% 30.09 in - NNW 6.9 mph - N/A   Clear
8:30 PM 41.0 °F 39.0 °F 23.0 °F 49% 30.09 in - NNE 3.5 mph - N/A   Clear
9:00 PM 39 °F - 20 °F 34% 30.19 in 19 mi NNE 3.5 mph - -   Scattered Clouds
9:00 PM 41.0 °F 39.0 °F 21.2 °F 45% 30.12 in - North 3.5 mph - N/A   Clear
9:30 PM 39.2 °F - 19.4 °F 45% 30.12 in - NNW 2.3 mph - N/A   Clear
10:00 PM 37.4 °F 34.9 °F 19.4 °F 48% 30.12 in - ENE 3.5 mph - N/A   Clear
10:30 PM 37.4 °F - 19.4 °F 48% 30.12 in - North 2.3 mph - N/A   Clear
11:00 PM 36 °F - 21 °F 41% 30.21 in 19 mi WNW 4.6 mph - -  
11:00 PM 37.4 °F - 19.4 °F 48% 30.12 in - WNW 2.3 mph - N/A   Clear
11:30 PM 33.8 °F 28.6 °F 21.2 °F 60% 30.12 in - NNW 5.8 mph - N/A   Clear